Time,TemperatureF,DewpointF,PressureIn,WindDirection,WindDirectionDegrees,WindSpeedMPH,WindSpeedGustMPH,Humidity,HourlyPrecipIn,Conditions,Clouds,dailyrainin,SoftwareType,DateUTC
2013-05-31 00:06:00,77.9,70.0,30.07,SSE,156,2.0,12.0,77,0.00,,,0.00,weatherlink.com 1.10,2013-05-31 04:06:00,
2013-05-31 00:21:00,77.6,70.0,30.07,WSW,243,4.0,7.0,78,0.00,,,0.00,weatherlink.com 1.10,2013-05-31 04:21:00,
2013-05-31 00:37:00,77.3,70.0,30.07,SSE,148,0.0,9.0,79,0.00,,,0.00,weatherlink.com 1.10,2013-05-31 04:37:00,
2013-05-31 00:51:00,77.2,70.0,30.07,SSE,158,2.0,7.0,79,0.00,,,0.00,weatherlink.com 1.10,2013-05-31 04:51:00,
2013-05-31 01:07:00,77.0,70.0,30.07,SSE,158,3.0,7.0,80,0.00,,,0.00,weatherlink.com 1.10,2013-05-31 05:07:00,
2013-05-31 01:22:00,76.8,71.0,30.06,SSE,162,1.0,13.0,81,0.00,,,0.00,weatherlink.com 1.10,2013-05-31 05:22:00,
2013-05-31 01:37:00,76.4,70.0,30.06,SSE,149,0.0,5.0,81,0.00,,,0.00,weatherlink.com 1.10,2013-05-31 05:37:00,
2013-05-31 01:52:00,76.2,70.0,30.06,South,172,3.0,7.0,82,0.00,,,0.00,weatherlink.com 1.10,2013-05-31 05:52:00,
2013-05-31 02:37:00,75.9,70.0,30.03,SW,232,3.0,9.0,83,0.00,,,0.00,weatherlink.com 1.10,2013-05-31 06:37:00,
2013-05-31 02:52:00,75.7,70.0,30.03,West,259,1.0,7.0,83,0.00,,,0.00,weatherlink.com 1.10,2013-05-31 06:52:00,
2013-05-31 03:22:00,75.4,70.0,30.02,SSW,195,0.0,7.0,84,0.00,,,0.00,weatherlink.com 1.10,2013-05-31 07:22:00,
2013-05-31 03:37:00,75.3,70.0,30.03,ENE,77,4.0,6.0,84,0.00,,,0.00,weatherlink.com 1.10,2013-05-31 07:37:00,
2013-05-31 03:52:00,75.2,70.0,30.02,SE,129,4.0,5.0,84,0.00,,,0.00,weatherlink.com 1.10,2013-05-31 07:52:00,
2013-05-31 04:22:00,75.1,70.0,30.02,SE,139,1.0,6.0,84,0.00,,,0.00,weatherlink.com 1.10,2013-05-31 08:22:00,
2013-05-31 05:07:00,74.8,70.0,30.02,South,180,2.0,7.0,84,0.00,,,0.00,weatherlink.com 1.10,2013-05-31 09:07:00,
2013-05-31 05:22:00,74.7,70.0,30.02,South,177,1.0,6.0,84,0.00,,,0.00,weatherlink.com 1.10,2013-05-31 09:22:00,
2013-05-31 05:37:00,74.8,70.0,30.02,SSE,158,1.0,8.0,84,0.00,,,0.00,weatherlink.com 1.10,2013-05-31 09:37:00,
2013-05-31 05:52:00,74.9,70.0,30.02,SE,127,1.0,7.0,84,0.00,,,0.00,weatherlink.com 1.10,2013-05-31 09:52:00,
2013-05-31 06:07:00,74.9,70.0,30.03,SE,138,3.0,6.0,84,0.00,,,0.00,weatherlink.com 1.10,2013-05-31 10:07:00,
2013-05-31 06:22:00,74.8,70.0,30.03,WSW,246,1.0,9.0,85,0.00,,,0.00,weatherlink.com 1.10,2013-05-31 10:22:00,
2013-05-31 06:37:00,74.5,70.0,30.03,SSW,208,0.0,8.0,85,0.00,,,0.00,weatherlink.com 1.10,2013-05-31 10:37:00,
2013-05-31 07:07:00,74.4,70.0,30.04,ESE,119,1.0,7.0,86,0.00,,,0.00,weatherlink.com 1.10,2013-05-31 11:07:00,
2013-05-31 07:37:00,75.0,70.0,30.04,SSE,158,3.0,10.0,85,0.00,,,0.00,weatherlink.com 1.10,2013-05-31 11:37:00,
2013-05-31 07:52:00,75.2,71.0,30.05,South,183,0.0,4.0,85,0.00,,,0.00,weatherlink.com 1.10,2013-05-31 11:52:00,
2013-05-31 08:37:00,76.7,71.0,30.05,SSE,163,4.0,7.0,82,0.00,,,0.00,weatherlink.com 1.10,2013-05-31 12:37:00,
2013-05-31 09:07:00,78.7,72.0,30.06,ESE,120,6.0,6.0,80,0.00,,,0.00,weatherlink.com 1.10,2013-05-31 13:07:00,
2013-05-31 09:22:00,78.8,72.0,30.06,SE,146,4.0,9.0,79,0.00,,,0.00,weatherlink.com 1.10,2013-05-31 13:22:00,
2013-05-31 09:52:00,80.4,73.0,30.06,SW,225,3.0,10.0,77,0.00,,,0.00,weatherlink.com 1.10,2013-05-31 13:52:00,
2013-05-31 10:07:00,80.9,73.0,30.06,SSE,156,6.0,11.0,76,0.00,,,0.00,weatherlink.com 1.10,2013-05-31 14:07:00,
2013-05-31 10:37:00,81.8,73.0,30.07,South,181,0.0,8.0,74,0.00,,,0.00,weatherlink.com 1.10,2013-05-31 14:37:00,
2013-05-31 11:07:00,82.2,73.0,30.07,SSW,203,1.0,6.0,74,0.00,,,0.00,weatherlink.com 1.10,2013-05-31 15:07:00,
2013-05-31 11:37:00,84.4,74.0,30.07,East,101,2.0,8.0,70,0.00,,,0.00,weatherlink.com 1.10,2013-05-31 15:37:00,
2013-05-31 11:52:00,85.0,73.0,30.07,SE,131,1.0,7.0,68,0.00,,,0.00,weatherlink.com 1.10,2013-05-31 15:52:00,
2013-05-31 12:07:00,84.8,74.0,30.06,ENE,70,4.0,9.0,69,0.00,,,0.00,weatherlink.com 1.10,2013-05-31 16:07:00,
2013-05-31 12:22:00,84.1,73.0,30.07,South,174,0.0,8.0,70,0.00,,,0.00,weatherlink.com 1.10,2013-05-31 16:22:00,
2013-05-31 12:37:00,83.9,73.0,30.06,ESE,116,3.0,7.0,70,0.00,,,0.00,weatherlink.com 1.10,2013-05-31 16:37:00,
2013-05-31 12:52:00,85.4,74.0,30.06,SSW,205,4.0,6.0,68,0.00,,,0.00,weatherlink.com 1.10,2013-05-31 16:52:00,
2013-05-31 13:07:00,85.2,74.0,30.06,SE,142,2.0,6.0,69,0.00,,,0.00,weatherlink.com 1.10,2013-05-31 17:07:00,
2013-05-31 13:22:00,85.0,74.0,30.05,SSE,155,4.0,7.0,69,0.00,,,0.00,weatherlink.com 1.10,2013-05-31 17:22:00,
2013-05-31 13:37:00,86.9,74.0,30.05,WSW,242,3.0,9.0,66,0.00,,,0.00,weatherlink.com 1.10,2013-05-31 17:37:00,
2013-05-31 14:07:00,86.9,73.0,30.04,SW,219,0.0,8.0,64,0.00,,,0.00,weatherlink.com 1.10,2013-05-31 18:07:00,
2013-05-31 14:22:00,86.5,74.0,30.04,SW,224,0.0,5.0,67,0.00,,,0.00,weatherlink.com 1.10,2013-05-31 18:22:00,
2013-05-31 15:07:00,87.9,74.0,30.02,East,95,0.0,7.0,64,0.00,,,0.00,weatherlink.com 1.10,2013-05-31 19:07:00,
2013-05-31 15:22:00,87.4,74.0,30.02,SSE,149,6.0,12.0,64,0.00,,,0.00,weatherlink.com 1.10,2013-05-31 19:22:00,
2013-05-31 15:38:00,83.9,74.0,30.03,South,176,8.0,11.0,73,0.00,,,0.00,weatherlink.com 1.10,2013-05-31 19:38:00,
2013-05-31 15:53:00,82.2,74.0,30.03,SSW,197,1.0,10.0,75,0.00,,,0.00,weatherlink.com 1.10,2013-05-31 19:53:00,
2013-05-31 16:08:00,81.0,75.0,30.03,SSE,148,2.0,8.0,81,0.00,,,0.00,weatherlink.com 1.10,2013-05-31 20:08:00,
2013-05-31 16:23:00,79.0,75.0,30.03,SE,134,0.0,9.0,86,0.02,,,0.02,weatherlink.com 1.10,2013-05-31 20:23:00,
2013-05-31 16:38:00,76.5,73.0,30.02,SSE,153,1.0,5.0,89,0.20,,,0.20,weatherlink.com 1.10,2013-05-31 20:38:00,
2013-05-31 16:53:00,76.3,73.0,30.01,SW,218,0.0,1.0,90,0.26,,,0.26,weatherlink.com 1.10,2013-05-31 20:53:00,
2013-05-31 17:08:00,77.7,75.0,30.01,ESE,106,0.0,0.0,91,0.30,,,0.30,weatherlink.com 1.10,2013-05-31 21:08:00,
2013-05-31 17:23:00,78.3,76.0,30.01,SSW,195,1.0,4.0,91,0.27,,,0.30,weatherlink.com 1.10,2013-05-31 21:23:00,
2013-05-31 17:38:00,78.7,76.0,30.00,SSE,166,3.0,7.0,90,0.10,,,0.30,weatherlink.com 1.10,2013-05-31 21:38:00,
2013-05-31 17:53:00,80.2,76.0,30.00,SSW,207,0.0,8.0,87,0.04,,,0.30,weatherlink.com 1.10,2013-05-31 21:53:00,
2013-05-31 18:08:00,81.3,77.0,30.00,SSW,194,3.0,8.0,85,0.00,,,0.30,weatherlink.com 1.10,2013-05-31 22:08:00,
2013-05-31 18:23:00,82.0,76.0,30.00,SE,129,3.0,7.0,81,0.00,,,0.30,weatherlink.com 1.10,2013-05-31 22:23:00,
2013-05-31 18:38:00,82.4,76.0,30.00,ENE,65,0.0,8.0,80,0.00,,,0.30,weatherlink.com 1.10,2013-05-31 22:38:00,
2013-05-31 18:53:00,83.2,75.0,30.00,South,191,4.0,7.0,76,0.00,,,0.30,weatherlink.com 1.10,2013-05-31 22:53:00,
2013-05-31 19:08:00,83.0,74.0,30.01,SW,223,2.0,7.0,75,0.00,,,0.30,weatherlink.com 1.10,2013-05-31 23:08:00,
2013-05-31 19:38:00,81.8,74.0,30.01,SSW,197,6.0,7.0,78,0.00,,,0.30,weatherlink.com 1.10,2013-05-31 23:38:00,
2013-05-31 19:53:00,81.2,74.0,30.01,WSW,240,0.0,7.0,79,0.00,,,0.30,weatherlink.com 1.10,2013-05-31 23:53:00,
2013-05-31 20:08:00,80.4,74.0,30.02,SW,222,1.0,5.0,81,0.00,,,0.30,weatherlink.com 1.10,2013-06-01 00:08:00,
2013-05-31 20:23:00,79.5,73.0,30.02,South,170,2.0,6.0,79,0.00,,,0.30,weatherlink.com 1.10,2013-06-01 00:23:00,
2013-05-31 20:53:00,78.9,73.0,30.03,South,176,1.0,5.0,82,0.00,,,0.30,weatherlink.com 1.10,2013-06-01 00:53:00,
2013-05-31 21:08:00,79.0,73.0,30.04,South,183,0.0,5.0,82,0.00,,,0.30,weatherlink.com 1.10,2013-06-01 01:08:00,
2013-05-31 21:23:00,79.0,74.0,30.04,SE,142,0.0,3.0,83,0.00,,,0.30,weatherlink.com 1.10,2013-06-01 01:23:00,
2013-05-31 21:53:00,79.0,74.0,30.05,SE,139,1.0,4.0,83,0.00,,,0.30,weatherlink.com 1.10,2013-06-01 01:53:00,
2013-05-31 22:08:00,78.9,73.0,30.05,South,176,0.0,3.0,83,0.00,,,0.30,weatherlink.com 1.10,2013-06-01 02:08:00,
2013-05-31 22:23:00,78.7,73.0,30.05,South,172,0.0,6.0,83,0.00,,,0.30,weatherlink.com 1.10,2013-06-01 02:23:00,
2013-05-31 22:53:00,78.9,72.0,30.05,SSE,156,0.0,6.0,80,0.00,,,0.30,weatherlink.com 1.10,2013-06-01 02:53:00,
2013-05-31 23:08:00,78.9,72.0,30.05,SW,222,1.0,5.0,80,0.00,,,0.30,weatherlink.com 1.10,2013-06-01 03:08:00,
2013-05-31 23:23:00,78.8,72.0,30.05,South,179,2.0,6.0,80,0.00,,,0.30,weatherlink.com 1.10,2013-06-01 03:23:00,
2013-05-31 23:53:00,78.0,72.0,30.05,WSW,253,0.0,7.0,81,0.00,,,0.30,weatherlink.com 1.10,2013-06-01 03:53:00,